Guymon, OK

3:54 PM CST on December 15, 2017 (GMT -0600)
Guymon Municipal

Weather History for KGUY - November, 2011

Change the Weather History Date:

Thursday, November 24, 2011

  Actual Average Record
Temperature  
Mean Temperature 55 °F 42 °F  
Max Temperature 74 °F 56 °F 84 °F (2017)
Min Temperature 36 °F 27 °F 14 °F (2003)
Degree Days  
Heating Degree Days 10 23  
Month to date heating degree days 430 433  
Since 1 July heating degree days 659 742  
Cooling Degree Days 0 0  
Month to date cooling degree days 0 0  
Year to date cooling degree days 2163 1481  
Growing Degree Days 5 (Base 50)    
Moisture  
Dew Point 29 °F    
Average Humidity 41    
Maximum Humidity 64    
Minimum Humidity 17    
Precipitation  
Precipitation 0.00 in 0.01 in 0.19 in (2013)
Month to date precipitation 0.52 0.45  
Year to date precipitation 7.18 18.58  
Snow  
Snow 0.00 in - - ()
Month to date snowfall T  
Since 1 July snowfall 1.5  
Since 1 September snowfall 1.5  
Snow Depth 0.00 in    
Sea Level Pressure  
Sea Level Pressure 29.93 in    
Wind  
Wind Speed 16 mph (SSW)    
Max Wind Speed 32 mph    
Max Gust Speed 40 mph    
Visibility 10 miles    
Events      
T = Trace of Precipitation, MM = Missing Value Source: NWS Daily Summary

Daily Weather History Graph

Daily Weather History Graph

Search for Another Location

Airport or City:

Trip Planner

Search our weather history database for the weather conditions in past years. The results will help you decide how hot, cold, wet, or windy it might be!

Date:

Astronomy

Nov. 24, 2011 Rise Set
Actual Time 7:32 AM CST 5:32 PM CST
Civil Twilight 7:04 AM CST 6:00 PM CST
Nautical Twilight 6:33 AM CST 6:31 PM CST
Astronomical Twilight 6:02 AM CST 7:02 PM CST
Moon 6:52 AM CST (11/24) 5:05 PM CST (11/24)
Length of Visible Light 10h 55m
Length of Day
9h 59m
Waning Crescent, 0% of the Moon is Illuminated
Nov 24
Waning Crescent
Nov 25
New
Dec 2
First Quarter
Dec 10
Full
Dec 17
Last Quarter

Hourly Weather History & Observations

Time (CST) Temp. Windchill Dew Point Humidity Pressure Visibility Wind Dir Wind Speed Gust Speed Precip Events Conditions
12:53 AM 41.0 °F 33.9 °F 28.9 °F 62% 30.05 in 10.0 mi SW 12.7 mph - N/A   Clear
1:53 AM 41.0 °F 33.5 °F 28.9 °F 62% 30.04 in 10.0 mi SSW 13.8 mph - N/A   Clear
2:53 AM 39.0 °F 31.8 °F 28.0 °F 65% 30.04 in 10.0 mi SSW 11.5 mph - N/A   Clear
3:53 AM 39.9 °F 32.1 °F 28.0 °F 63% 30.01 in 10.0 mi SSW 13.8 mph - N/A   Clear
5:53 AM 37.9 °F 30.9 °F 27.0 °F 65% 30.02 in 10.0 mi South 10.4 mph - N/A   Clear
6:53 AM 39.0 °F 32.3 °F 27.0 °F 62% 30.04 in 10.0 mi SSW 10.4 mph - N/A   Clear
7:53 AM 39.9 °F 32.1 °F 27.0 °F 60% 30.04 in 10.0 mi SSW 13.8 mph - N/A   Clear
8:53 AM 46.9 °F - 28.9 °F 50% 30.03 in 10.0 mi SSW 12.7 mph - N/A   Clear
9:53 AM 53.1 °F - 30.0 °F 41% 30.01 in 10.0 mi SSW 12.7 mph - N/A   Clear
10:53 AM 64.0 °F - 30.0 °F 28% 29.97 in 10.0 mi SSW 24.2 mph 32.2 mph N/A   Clear
11:53 AM 69.1 °F - 28.0 °F 22% 29.93 in 10.0 mi SSW 25.3 mph 31.1 mph N/A   Clear
12:53 PM 71.1 °F - 27.0 °F 19% 29.88 in 10.0 mi SSW 27.6 mph 38.0 mph N/A   Clear
1:53 PM 73.0 °F - 26.1 °F 17% 29.83 in 10.0 mi SSW 28.8 mph 35.7 mph N/A   Clear
2:53 PM 72.0 °F - 30.9 °F 22% 29.82 in 10.0 mi South 25.3 mph 31.1 mph N/A   Clear
4:53 PM 70.0 °F - 26.1 °F 19% 29.82 in 10.0 mi South 16.1 mph - N/A   Clear
5:53 PM 64.0 °F - 28.9 °F 27% 29.83 in 10.0 mi South 15.0 mph - N/A   Clear
6:53 PM 60.1 °F - 28.9 °F 31% 29.84 in 10.0 mi South 13.8 mph - N/A   Clear
7:53 PM 55.9 °F - 30.0 °F 37% 29.84 in 10.0 mi South 16.1 mph - N/A   Clear
8:53 PM 55.9 °F - 33.1 °F 42% 29.82 in 10.0 mi South 18.4 mph 23.0 mph N/A   Clear
9:53 PM 54.0 °F - 34.0 °F 47% 29.82 in 10.0 mi South 12.7 mph - N/A   Clear
11:53 PM 50.0 °F - 30.0 °F 46% 29.77 in 10.0 mi South 11.5 mph - N/A   Clear